Find WHDW 03-07

NORAD ID: 63693 Int'l Des: 2025-086 Owner: ZXW Country: CN Constellation: xingwang operational
LEOCIRCULARPOLARONEWEB_TYPE

Live Position

Loading 3D Globe...

About WHDW 03-07

Description loading...

Upcoming Passes

Passes for default location (London). Set your location on the main map for personalized predictions.

Altitude History

Loading altitude history...

Two-Line Element Set

1 63693U 25086G 26105.64434826 .00000062 00000-0 10993-3 0 9992
2 63693 86.5103 334.2644 0002297 77.2879 282.8512 13.24411913 46588
Epoch: Apr 15, 2026 • Age: 5 hours

Current Status

Altitude 1184.4 km
Velocity 7.26 km/s
Sub-Earth Point -40.93°S, 176.69°E
Launch Date Apr 28, 2025
Age 0.9 years
Type other

Technical Details

Classification Payload
Mass 800.00 kg
Dry Mass 800.00 kg
Total Mass 800.00 kg
Length 3.00 m
Diameter 1.00 m
Span 10.00 m
Shape Box + 2 Pan
Manufacturer CAST
Bus Type Xingwang CL
Phase Status In Orbit
Owner/State ZXW/CN

Most Searched